Total_Precipitation_Accumulation
0.00 0.01 0.01 0.02 0.02 0.04 0.07 0.10 0.19 0.26 0.20 0.22 0.39 0.57 0.70 0.82 1.06 1.18 1.21 1.15 1.18 1.47 1.88 2.11 2.41 2.90 3.68 4.41 5.09 5.21 5.43 4.91 4.26 3.69 3.27 3.17 2.98 2.67 2.58 2.47 2.29 2.14 1.92 1.79
0.02 0.04 0.03 0.02 0.03 0.05 0.09 0.13 0.21 0.24 0.17 0.20 0.39 0.67 0.85 0.94 0.93 0.99 1.02 1.07 1.18 1.54 1.98 2.35 2.89 3.27 3.28 3.80 4.51 4.57 4.26 4.01 3.54 3.13 2.94 2.77 2.70 2.40 2.23 2.11 2.09 1.90 1.75 1.71
0.04 0.05 0.03 0.03 0.05 0.10 0.12 0.14 0.19 0.18 0.17 0.25 0.45 0.84 1.14 1.07 0.81 0.73 0.79 0.87 1.01 1.36 1.86 2.30 2.71 3.14 3.10 3.46 3.56 3.19 3.03 3.08 2.98 2.80 2.68 2.57 2.53 2.33 2.08 1.89 1.87 1.73 1.53 1.50
0.03 0.03 0.03 0.04 0.06 0.07 0.08 0.08 0.07 0.08 0.15 0.31 0.45 1.02 1.43 1.23 0.93 0.76 0.79 0.96 1.02 1.13 1.33 1.61 1.95 2.37 2.56 2.64 2.57 2.52 2.48 2.50 2.67 2.67 2.43 2.24 1.94 1.81 1.74 1.62 1.67 1.68 1.47 1.38
0.03 0.03 0.03 0.04 0.05 0.05 0.05 0.04 0.05 0.09 0.13 0.28 0.49 0.85 1.27 1.25 1.20 1.04 0.90 0.95 0.90 0.94 0.99 1.14 1.26 1.46 1.74 2.00 2.06 2.04 2.28 2.37 2.39 2.36 2.30 2.28 2.02 1.82 1.75 1.86 2.05 1.95 1.64 1.37
0.05 0.05 0.04 0.03 0.04 0.04 0.04 0.05 0.12 0.25 0.38 0.70 0.70 0.75 1.12 1.08 1.04 1.03 0.88 0.74 0.70 0.71 0.76 0.94 0.99 1.04 1.17 1.34 1.46 1.57 1.82 2.02 2.08 2.04 2.04 2.08 2.07 2.00 1.80 1.75 1.79 1.70 1.54 1.37
0.14 0.12 0.09 0.05 0.05 0.05 0.05 0.09 0.32 0.69 1.01 1.19 0.75 0.72 0.94 0.82 0.83 0.90 0.72 0.50 0.46 0.54 0.56 0.67 0.73 0.82 0.93 0.97 1.07 1.25 1.45 1.59 1.70 1.78 1.83 1.89 2.06 1.97 1.73 1.53 1.55 1.50 1.34 1.24
0.15 0.18 0.10 0.05 0.05 0.06 0.06 0.07 0.19 0.35 0.50 0.71 0.77 1.13 1.07 0.68 0.64 0.57 0.41 0.32 0.30 0.45 0.48 0.46 0.50 0.57 0.72 0.78 0.86 1.02 1.14 1.20 1.31 1.54 1.76 1.73 1.83 1.68 1.54 1.63 1.54 1.40 1.20 1.21
0.07 0.06 0.05 0.05 0.05 0.07 0.05 0.05 0.06 0.10 0.16 0.45 0.85 1.24 1.04 0.62 0.56 0.44 0.30 0.24 0.28 0.35 0.46 0.41 0.40 0.44 0.47 0.53 0.61 0.78 1.05 1.12 1.14 1.24 1.47 1.56 1.54 1.54 1.60 1.72 1.65 1.52 1.42 1.30
0.04 0.02 0.04 0.05 0.06 0.07 0.06 0.06 0.06 0.08 0.16 0.34 0.72 1.11 1.19 0.92 0.67 0.46 0.35 0.34 0.43 0.41 0.50 0.55 0.42 0.39 0.41 0.41 0.50 0.62 0.79 1.00 1.18 1.18 1.18 1.22 1.45 1.51 1.62 1.65 1.53 1.50 1.46 1.43
0.04 0.02 0.03 0.05 0.07 0.08 0.08 0.08 0.09 0.10 0.13 0.22 0.55 0.81 0.73 0.71 0.55 0.43 0.45 0.54 0.44 0.42 0.49 0.53 0.38 0.32 0.36 0.39 0.47 0.60 0.74 1.00 1.18 1.10 1.11 1.22 1.39 1.48 1.53 1.66 1.63 1.53 1.49 1.49
0.05 0.03 0.04 0.08 0.11 0.11 0.10 0.10 0.11 0.15 0.16 0.17 0.28 0.50 0.44 0.51 0.50 0.58 0.63 0.59 0.53 0.51 0.51 0.53 0.45 0.47 0.49 0.54 0.57 0.68 0.76 0.90 1.01 1.06 1.14 1.20 1.31 1.38 1.41 1.45 1.52 1.57 1.53 1.56
0.06 0.05 0.07 0.21 0.31 0.22 0.15 0.10 0.11 0.13 0.13 0.16 0.31 0.51 0.45 0.49 0.52 0.57 0.60 0.58 0.64 0.66 0.60 0.57 0.60 0.67 0.64 0.65 0.74 0.80 0.86 0.88 0.98 1.15 1.16 1.12 1.18 1.17 1.21 1.28 1.34 1.44 1.50 1.55
0.07 0.06 0.08 0.22 0.33 0.35 0.26 0.17 0.16 0.13 0.14 0.17 0.24 0.45 0.45 0.56 0.70 0.64 0.69 0.64 0.58 0.60 0.58 0.52 0.57 0.61 0.65 0.67 0.71 0.79 0.85 0.91 0.99 1.00 1.02 1.04 1.05 1.09 1.18 1.27 1.31 1.33 1.32 1.40
0.09 0.07 0.05 0.09 0.17 0.20 0.21 0.20 0.18 0.13 0.12 0.17 0.22 0.35 0.51 0.61 0.74 0.68 0.68 0.74 0.75 0.61 0.54 0.45 0.45 0.53 0.63 0.69 0.70 0.75 0.82 0.91 1.04 1.06 1.03 1.04 1.08 1.09 1.13 1.16 1.17 1.19 1.26 1.27
0.15 0.11 0.10 0.11 0.14 0.14 0.16 0.18 0.15 0.11 0.09 0.10 0.18 0.36 0.53 0.66 0.69 0.65 0.56 0.55 0.69 0.63 0.54 0.52 0.52 0.59 0.63 0.64 0.64 0.62 0.65 0.77 0.95 1.03 1.12 1.16 1.15 1.08 1.12 1.13 1.10 1.13 1.25 1.34
0.28 0.22 0.21 0.21 0.17 0.18 0.25 0.21 0.17 0.14 0.12 0.13 0.24 0.37 0.54 0.67 0.60 0.64 0.59 0.52 0.52 0.51 0.50 0.57 0.62 0.64 0.63 0.62 0.58 0.57 0.57 0.70 0.99 1.09 1.08 1.20 1.28 1.19 1.25 1.28 1.24 1.24 1.29 1.39
0.38 0.39 0.31 0.28 0.31 0.38 0.29 0.24 0.22 0.25 0.25 0.24 0.27 0.39 0.60 0.78 0.68 0.62 0.62 0.61 0.55 0.45 0.49 0.57 0.58 0.59 0.60 0.59 0.59 0.58 0.58 0.66 0.91 1.08 1.13 1.33 1.48 1.39 1.39 1.40 1.40 1.44 1.48 1.51
0.39 0.47 0.47 0.42 0.44 0.46 0.39 0.35 0.36 0.45 0.55 0.46 0.47 0.61 0.66 0.64 0.66 0.71 0.66 0.60 0.55 0.54 0.58 0.58 0.62 0.64 0.69 0.74 0.75 0.74 0.79 0.89 1.02 1.15 1.27 1.50 1.70 1.73 1.68 1.62 1.68 1.71 1.73 1.76
0.35 0.45 0.55 0.57 0.64 0.73 0.66 0.53 0.49 0.62 0.98 0.80 0.65 0.68 0.70 0.70 0.86 0.88 0.63 0.54 0.53 0.56 0.64 0.74 0.82 0.82 0.82 0.88 0.86 0.88 0.97 1.13 1.25 1.28 1.31 1.44 1.66 1.73 1.71 1.70 1.84 1.98 2.02 2.01
0.54 0.55 0.57 0.64 0.74 0.74 0.67 0.59 0.63 1.09 1.44 1.02 0.88 0.90 0.94 0.93 0.88 0.76 0.67 0.69 0.62 0.57 0.64 0.70 0.71 0.80 0.89 0.96 0.98 1.08 1.12 1.20 1.23 1.24 1.26 1.35 1.57 1.88 1.86 1.90 1.97 2.08 2.15 2.19
0.71 0.73 0.70 0.75 0.98 1.09 0.72 0.64 0.98 1.33 1.23 1.25 1.21 1.19 1.13 0.98 0.80 0.69 0.68 0.73 0.64 0.61 0.69 0.69 0.66 0.74 0.85 0.98 1.12 1.18 1.20 1.22 1.28 1.29 1.32 1.40 1.65 1.75 1.83 1.98 2.04 2.18 2.29 2.29
0.81 0.91 0.91 1.00 1.21 1.11 0.87 0.94 0.98 1.05 1.18 1.24 1.17 1.17 1.14 1.08 0.94 0.83 0.79 0.74 0.70 0.69 0.72 0.78 0.77 0.80 0.87 0.99 1.18 1.31 1.30 1.30 1.29 1.26 1.28 1.37 1.51 1.59 1.74 1.82 1.80 1.86 1.97 1.99
0.96 0.84 1.05 1.39 1.39 1.21 1.04 0.95 0.95 0.92 0.99 1.00 0.96 0.92 0.92 0.91 0.87 0.83 0.82 0.83 0.85 0.88 0.84 0.85 0.84 0.87 0.91 0.95 1.13 1.27 1.25 1.26 1.27 1.22 1.18 1.26 1.43 1.52 1.62 1.73 1.70 1.77 1.83 1.88
1.23 1.15 1.35 1.71 1.69 1.49 1.37 1.19 1.14 1.00 0.97 0.95 0.92 0.89 0.82 0.72 0.70 0.70 0.67 0.68 0.74 0.82 0.84 0.79 0.78 0.82 0.83 0.87 1.06 1.21 1.22 1.24 1.29 1.24 1.18 1.25 1.36 1.47 1.54 1.63 1.70 1.72 1.74 1.72
1.16 1.36 1.63 1.84 1.68 1.57 1.56 1.27 1.21 1.26 1.14 1.00 1.01 0.96 0.85 0.71 0.62 0.60 0.60 0.59 0.60 0.67 0.77 0.77 0.80 0.78 0.74 0.81 0.96 1.07 1.22 1.36 1.40 1.30 1.21 1.18 1.18 1.28 1.35 1.42 1.42 1.35 1.32 1.30